Hourly Data Report for October 04, 2015

All times are specified in Local Standard Time (LST). Add 1 hour to adjust for Daylight Saving Time where and when it is observed.

MONCTON INTL A
NEW BRUNSWICK

46°06'44.000" N
64°40'43.000" W
70.70 m
8103201
71705
YQM

Download Data

Hourly Data (October 2015)
Hourly Data Report for October 4, 2015
Temp Definition
°C
Dew Point Temp Definition
°C
Rel Hum Definition
%
Wind Dir Definition
10's deg

Wind Spd Definition
km/h
Visibility Definition
km
Stn Press Definition
kPa
Hmdx Definition


Wind Chill Definition


Weather Definition


TIME
00:00 Legend Double Dagger 1.2 -0.1 91 35 8 24.1 102.47     LegendNANA
01:00 Legend Double Dagger 1.1 0.1 93 31 6 24.1 102.45     LegendNANA
02:00 Legend Double Dagger 0.6 -0.4 93 32 6 24.1 102.45     Clear
03:00 Legend Double Dagger 1.6 0.6 93 33 13 24.1 102.41     LegendNANA
04:00 Legend Double Dagger 0.9 -0.1 93 36 7 24.1 102.38     LegendNANA
05:00 Legend Double Dagger 1.3 0.3 93 24 3 24.1 102.39     Clear
06:00 Legend Double Dagger -0.3 -1.0 95 21 9 24.1 102.38   -3 LegendNANA
07:00 Legend Double Dagger -0.1 -0.8 95 22 10 24.1 102.40   -3 LegendNANA
08:00 Legend Double Dagger 2.6 1.4 92 21 8 24.1 102.46     Mostly Cloudy
09:00 Legend Double Dagger 7.4 4.9 84 31 7 24.1 102.47     LegendNANA
10:00 Legend Double Dagger 11.6 6.8 72 2 16 24.1 102.40     LegendNANA
11:00 Legend Double Dagger 12.4 6.5 67 3 21 24.1 102.40     Mostly Cloudy
12:00 Legend Double Dagger 13.6 6.5 62 4 18 24.1 102.33     LegendNANA
13:00 Legend Double Dagger 14.9 5.5 53 1 20 24.1 102.21     LegendNANA
14:00 Legend Double Dagger 14.4 5.8 56 3 22 24.1 102.11     Mostly Cloudy
15:00 Legend Double Dagger 14.4 4.7 52 2 25 24.1 102.11     LegendNANA
16:00 Legend Double Dagger 14.0 7.1 63 1 21 24.1 102.08     LegendNANA
17:00 Legend Double Dagger 12.3 8.0 75 2 14 24.1 102.07     Mostly Cloudy
18:00 Legend Double Dagger 9.7 7.8 88 1 17 24.1 102.04     LegendNANA
19:00 Legend Double Dagger 8.3 7.6 95 2 7 24.1 102.04     LegendNANA
20:00 Legend Double Dagger 5.9 5.5 97 1 7 24.1 102.00     Mostly Cloudy
21:00 Legend Double Dagger 6.8 6.7 99 9 5 24.1 101.99     LegendNANA
22:00 Legend Double Dagger 4.4 3.7 95 36 1 24.1 101.94     LegendNANA
23:00 Legend Double Dagger 5.2 4.8 97 12 4 24.1 101.88     Mainly Clear

Notes on Data Quality.

Legend

  • E = Estimated
  • M = Missing
  • NA = Not Available
  • ‡ = Partner data that is not subject to review by the National Climate Archives
Date modified: